Regional Weather Roundup
Issued by NWS

Home | Current Version | Previous Version | Text Only | Print | Product List | Glossary Off
Versions: 1 2 3 4 5 6 7 8 9 10 11 12 13 14 15 16 17 18 19 20 21 22 23 24 25 26 27 28 29 30 31 32 33 34 35 36 37 38 39 40 41 42 43 44 45 46 47 48 49 50

000
ASUS43 KLMK 130502
RWRKY
KENTUCKY REGIONAL WEATHER ROUNDUP
NATIONAL WEATHER SERVICE LOUISVILLE KY
100 AM EDT SUN JUL 13 2014

NOTE "FAIR" INDICATES FEW OR NO CLOUDS BELOW 12,000 FEET
WITH NO SIGNIFICANT WEATHER AND/OR OBSTRUCTIONS TO VISIBILITY.

KYZ001>023-026-027-061>063-070>075-130600-
WESTERN AND SOUTH CENTRAL KENTUCKY

CITY           SKY/WX    TMP DP  RH WIND       PRES   REMARKS
PADUCAH        CLEAR     81  72  74 SW7       30.06S
HENDERSON      CLOUDY    79  70  73 SW7       30.03F
OWENSBORO      CLOUDY    76  74  93 S5        30.05F
HOPKINSVILLE   NOT AVBL
BOWLING GREEN  CLOUDY    76  69  79 CALM      30.09S
GLASGOW        NOT AVBL
$$

KYZ024-025-028>034-038-045-046-053-130600-
NORTH CENTRAL KENTUCKY

CITY           SKY/WX    TMP DP  RH WIND       PRES   REMARKS
LOUISVILLE/SDF CLOUDY    82  67  60 S6        30.05S
LOUISVILLE/LOU CLOUDY    81  67  62 S3        30.06S
FORT KNOX      NOT AVBL
$$

KYZ035>037-039>044-047>052-055>060-089>105-130600-
NORTHEAST KENTUCKY

CITY           SKY/WX    TMP DP  RH WIND       PRES   REMARKS
LEXINGTON      MOCLDY    77  66  68 S6        30.10S
COVINGTON      CLOUDY    76  67  73 S8        30.05F
FRANKFORT      CLOUDY    76  68  76 SW3       30.07S
$$

KYZ054-064>069-076>088-106>120-130600-
SOUTHEAST KENTUCKY

CITY           SKY/WX    TMP DP  RH WIND       PRES   REMARKS
JACKSON        PTCLDY    75  61  61 CALM      30.13S
LONDON         CLEAR     72  63  73 CALM      30.14R
SOMERSET       MOCLDY    70  61  73 CALM      30.13S
MIDDLESBORO    CLEAR     68  65  89 CALM      30.15S
MONTICELLO     PTCLDY    67  65  93 CALM      30.13S
$$



USA.gov is the U.S. government's official web portal to all federal, state and local government web resources and services.